[[{"header":{"parameterUnit":"m.s-1","parameterCategory":1,"la1":30.2992,"la2":30.254,"lo1":-89.0895,"lo2":-89.0443,"dy":0.0025,"dx":0.0025,"nx":19,"ny":19,"refTime":"2026-04-16T03:00:00:Z","depth":0,"parameterNumber":2,"parameterNumberName":"U-component_of_WINDS"},"data":[0,0,0,-0.9042,-0.9043,-0.9089,-0.909,-0.9151,-0.9151,0,0,0,0,0,0,0,0,0,0,0,-0.9028,-0.9029,-0.9042,-0.9043,-0.9089,-0.909,-0.9151,-0.9151,0,0,0,0,0,0,0,0,0,0,0,-0.9028,-0.9029,-0.9029,-0.9044,-0.9089,-0.909,-0.9151,-0.9116,0,0,0,0,0,0,0,0,0,0,-0.9071,-0.9057,-0.9029,-0.9029,-0.9044,-0.9089,-0.909,-0.9114,-0.9118,-0.913,0,-0.914,0,-0.9147,-0.9156,-0.9156,0,0,0,-0.9044,-0.9054,-0.9066,-0.9029,-0.9044,-0.9089,-0.9069,-0.9116,-0.912,-0.9136,-0.9141,-0.9143,-0.9148,-0.9156,-0.9156,-0.9224,-0.9224,0,0,-0.9042,-0.9037,-0.9063,-0.9069,-0.906,-0.9067,-0.907,-0.9119,-0.9125,-0.9141,-0.9145,-0.9149,-0.9156,-0.9157,-0.9223,-0.9224,0,0,0,-0.9034,-0.9035,-0.9046,-0.9066,-0.9074,-0.9069,-0.9072,-0.9123,-0.9127,-0.9145,-0.9149,-0.9157,-0.9157,-0.9223,-0.9224,-0.9232,0,0,0,-0.9032,-0.9031,-0.9045,-0.9043,-0.9073,-0.9099,-0.9075,-0.9123,-0.9129,-0.9149,-0.9157,-0.9158,-0.9223,-0.9223,-0.9232,-0.9238,0,0,0,-0.9026,-0.903,-0.9036,-0.9043,-0.9062,-0.9098,-0.9105,-0.9125,-0.9131,-0.9156,-0.9158,-0.9223,-0.9223,-0.9231,-0.9237,-0.9255,0,0,0,-0.9017,-0.9044,-0.9036,-0.9067,-0.9061,-0.9102,-0.9105,-0.9136,-0.9158,-0.9157,-0.9223,-0.9224,-0.923,-0.9236,-0.9254,-0.9269,-0.9275,0,0,-0.9048,-0.9047,-0.9066,-0.9061,-0.9101,-0.9096,-0.9139,-0.9164,-0.9172,-0.9207,-0.9208,-0.9232,-0.9236,-0.9254,-0.9308,-0.9312,0,0,0,-0.9074,-0.9088,-0.91,-0.912,-0.9139,-0.9156,-0.9175,-0.9185,-0.9214,-0.9188,-0.9243,-0.9246,-0.9257,-0.9265,-0.9268,-0.9279,-0.9227,-0.9227,-0.9226,-0.9112,-0.9119,-0.9151,-0.9163,-0.9183,-0.9202,-0.9219,-0.9236,-0.9238,-0.9251,-0.9261,-0.9293,-0.9302,-0.9304,-0.9315,-0.927,-0.927,-0.927,-0.927,-0.9158,-0.9178,-0.918,-0.9211,-0.922,-0.9247,-0.9267,-0.9268,-0.9296,-0.9285,-0.9295,-0.9284,-0.9309,-0.9319,-0.9271,-0.927,-0.927,-0.927,-0.927,-0.9184,-0.9195,-0.9205,-0.9235,-0.9257,-0.927,-0.9296,-0.9303,-0.931,-0.9319,-0.9332,-0.9332,-0.9333,-0.9325,-0.9325,-0.9325,-0.9325,-0.9325,-0.9325,-0.9206,-0.9218,-0.9238,-0.926,-0.9274,-0.9294,-0.9314,-0.9329,-0.9347,-0.935,-0.935,-0.9352,-0.931,-0.9299,-0.9327,-0.9327,-0.9326,-0.9326,-0.9326,-0.9252,-0.9243,-0.9274,-0.9288,-0.9316,-0.9338,-0.9346,-0.9375,-0.9388,-0.9402,-0.9401,-0.9369,-0.9369,-0.9366,-0.9358,-0.9399,-0.9399,-0.9399,-0.9399,-0.9274,-0.9275,-0.9309,-0.933,-0.9353,-0.9363,-0.9401,-0.9417,-0.9433,-0.9442,-0.9437,-0.9426,-0.9423,-0.9425,-0.9421,-0.9413,-0.9467,-0.9467,-0.9467,-0.9303,-0.9306,-0.9336,-0.9349,-0.9371,-0.9391,-0.9427,-0.9453,-0.947,-0.947,-0.9449,-0.9446,-0.9429,-0.9423,-0.9424,-0.9417,-0.9403,0,0]},{"header":{"parameterUnit":"m.s-1","parameterCategory":1,"la1":30.2992,"la2":30.254,"lo1":-89.0895,"lo2":-89.0443,"dy":0.0025,"dx":0.0025,"nx":19,"ny":19,"refTime":"2026-04-16T03:00:00:Z","depth":0,"parameterNumber":3,"parameterNumberName":"V-component_of_WINDS"},"data":[0,0,0,3.2609,3.261,3.2661,3.2661,3.2725,3.2726,0,0,0,0,0,0,0,0,0,0,0,3.2594,3.2595,3.2609,3.261,3.2661,3.2661,3.2725,3.2726,0,0,0,0,0,0,0,0,0,0,0,3.2594,3.2595,3.2595,3.261,3.2661,3.2661,3.2725,3.2687,0,0,0,0,0,0,0,0,0,0,3.2637,3.2625,3.2595,3.2595,3.261,3.2661,3.2661,3.2685,3.2689,3.2702,0,3.2716,0,3.2722,3.273,3.273,0,0,0,3.2609,3.2622,3.2635,3.2596,3.2611,3.2661,3.2638,3.2687,3.2692,3.2708,3.2716,3.2719,3.2723,3.2731,3.2731,3.2813,3.2813,0,0,3.2606,3.2604,3.2631,3.2638,3.2632,3.2636,3.2639,3.269,3.2699,3.2717,3.272,3.2724,3.2731,3.2732,3.2813,3.2813,0,0,0,3.2599,3.2602,3.2614,3.2635,3.2645,3.2637,3.2641,3.2696,3.2701,3.2721,3.2725,3.2731,3.2732,3.2812,3.2813,3.2831,0,0,0,3.2597,3.2598,3.2613,3.2612,3.2644,3.2672,3.2646,3.2697,3.2703,3.2724,3.2732,3.2733,3.2812,3.2812,3.283,3.284,0,0,0,3.2591,3.2597,3.2605,3.2611,3.2633,3.2671,3.2678,3.2698,3.2705,3.2731,3.2733,3.2811,3.2812,3.2828,3.2838,3.286,0,0,0,3.2583,3.2621,3.2605,3.2648,3.2633,3.2683,3.2677,3.2714,3.2738,3.2732,3.2812,3.2813,3.2828,3.2836,3.2858,3.2877,3.2885,0,0,3.2629,3.2626,3.2652,3.2639,3.2691,3.2675,3.2729,3.2753,3.2757,3.2794,3.2796,3.283,3.2837,3.2859,3.2933,3.2939,0,0,0,3.2665,3.2683,3.2698,3.2721,3.2741,3.2757,3.2773,3.2782,3.2813,3.2776,3.2845,3.2849,3.2862,3.2871,3.2876,3.2887,3.2817,3.2817,3.2817,3.2726,3.273,3.2772,3.2781,3.2804,3.2819,3.2837,3.2851,3.2848,3.2865,3.2875,3.2919,3.293,3.2934,3.2945,3.2886,3.2887,3.2887,3.2887,3.2792,3.2818,3.2813,3.2852,3.2855,3.2887,3.2903,3.29,3.2929,3.2912,3.2924,3.2904,3.2941,3.295,3.2888,3.2888,3.2888,3.2888,3.2887,3.2831,3.2844,3.2855,3.2888,3.2912,3.2921,3.2949,3.2951,3.2953,3.2964,3.2974,3.2974,3.2972,3.2969,3.2969,3.2969,3.297,3.297,3.297,3.2867,3.2879,3.2903,3.2926,3.294,3.296,3.2975,3.2989,3.3005,3.3004,3.3004,3.2998,3.2945,3.293,3.2972,3.2972,3.2971,3.2971,3.2971,3.2931,3.2917,3.2954,3.2968,3.2995,3.3018,3.3021,3.3049,3.306,3.3074,3.3066,3.3027,3.3023,3.3019,3.3007,3.3066,3.3066,3.3066,3.3066,3.2963,3.2962,3.2999,3.3022,3.3044,3.305,3.309,3.3102,3.3112,3.3119,3.3111,3.3095,3.3091,3.309,3.3084,3.3073,3.3148,3.3148,3.3148,3.3001,3.3002,3.3036,3.3047,3.3068,3.3085,3.3122,3.3146,3.3155,3.3151,3.3124,3.312,3.3096,3.3088,3.3082,3.3073,3.3053,0,0]}]]